This demonstration page uses our WeatherBlox Daily Observations layout. Learn more.

Left ArrowRight Arrow

39.51506, -84.39828

Hourly Observations for October 4, 2015

Temp ( °F °C ) Dew Point ( °F °C ) Humidity (%) Winds ( mph kmh ) Pressure ( in mb ) Visibility ( mi km ) Precip ( " mm )
12:15 am 00:15 Cloudy 55 12.5 50 10.2 86 86 NNE 5 7 30.06 1018 10 16 N/A
12:35 am 00:35 Mostly Cloudy 55 12.5 50 10.2 86 86 NNE 7 11 30.06 1018 10 16 N/A
12:55 am 00:55 Mostly Cloudy 55 12.5 50 10.2 86 86 NNE 7 11 30.06 1018 10 16 N/A
1:15 am 01:15 Mostly Cloudy 55 12.5 50 10.2 86 86 NE 5 7 30.06 1018 10 16 N/A
1:35 am 01:35 Cloudy 55 12.5 50 10.1 85 85 NE 8 13 30.06 1018 10 16 N/A
1:55 am 01:55 Cloudy 55 12.5 50 10 85 85 NNE 6 9 30.06 1018 10 16 N/A
2:15 am 02:15 Cloudy 55 12.5 50 10.1 85 85 NNE 6 9 30.06 1018 10 16 N/A
2:35 am 02:35 Cloudy with Drizzle 55 12.5 50 10 85 85 NE 7 11 30.06 1018 10 16 N/A
2:55 am 02:55 Cloudy with Light Rain 55 12.5 50 10 85 85 NE 8 13 30.06 1018 10 16 N/A
3:15 am 03:15 Cloudy 55 12.5 50 10 85 85 NNE 6 9 30.06 1018 10 16 N/A
3:35 am 03:35 Cloudy 55 12.5 50 10 85 85 NE 7 11 30.06 1018 10 16 N/A
3:55 am 03:55 Cloudy 55 12.5 50 10 85 85 NE 7 11 30.06 1018 10 16 N/A
4:15 am 04:15 Cloudy 55 12.6 50 10.2 85 85 NNE 6 9 30.06 1018 10 16 N/A
4:35 am 04:35 Cloudy 55 12.7 50 10.2 85 85 NNE 6 9 30.06 1018 10 16 N/A
4:55 am 04:55 Cloudy 56 13.1 51 10.6 85 85 NE 6 9 30.06 1018 10 16 N/A
5:15 am 05:15 Cloudy 57 13.8 52 11.1 84 84 NE 7 11 30.06 1018 10 16 N/A
5:35 am 05:35 Mostly Cloudy 56 13.2 51 10.6 84 84 NNE 7 11 30.09 1019 10 16 N/A
5:55 am 05:55 Cloudy 56 13.1 51 10.4 84 84 NNE 7 11 30.06 1018 10 16 N/A
6:15 am 06:15 Cloudy 57 13.8 52 11 83 83 NE 7 11 30.09 1019 10 16 N/A
6:35 am 06:35 Cloudy 57 13.8 51 10.8 82 82 NE 8 13 30.09 1019 10 16 N/A
6:55 am 06:55 Cloudy 57 13.7 51 10.7 82 82 NE 12 19 30.09 1019 10 16 N/A
7:15 am 07:15 Cloudy 56 13.1 50 10 82 82 ENE 12 19 30.09 1019 10 16 N/A
7:35 am 07:35 Mostly Cloudy 55 12.5 49 9.3 81 81 ENE 10 17 30.09 1019 10 16 N/A
7:55 am 07:55 Partly Cloudy 55 12.5 49 9.3 81 81 ENE 9 15 30.09 1019 10 16 N/A
8:15 am 08:15 Partly Cloudy 55 12.5 49 9.2 80 80 NE 8 13 30.09 1019 10 16 N/A
8:35 am 08:35 Sunny 57 13.8 50 10.2 79 79 NE 8 13 30.12 1020 10 16 N/A
8:55 am 08:55 Sunny 57 13.8 50 9.9 78 78 NE 8 13 30.12 1020 10 16 N/A
9:15 am 09:15 Sunny 57 14 50 9.8 76 76 ENE 8 13 30.12 1020 10 16 N/A
9:35 am 09:35 Sunny 60 15.3 51 10.4 73 73 ENE 8 13 30.12 1020 10 16 N/A
9:55 am 09:55 Sunny 61 16 51 10.3 69 69 E 12 19 30.12 1020 10 16 N/A
10:15 am 10:15 Sunny 62 16.6 51 10.3 67 67 ENE 9 15 30.09 1019 10 16 N/A
10:35 am 10:35 Sunny 63 17 51 10.5 66 66 E 9 15 30.09 1019 10 16 N/A
10:55 am 10:55 Sunny 64 17.7 51 10.8 64 64 ENE 8 13 30.09 1019 10 16 N/A
11:15 am 11:15 Sunny 66 18.7 53 11.4 63 63 ENE 7 11 30.09 1019 10 16 N/A
11:35 am 11:35 Sunny 69 20.8 55 12.8 60 60 E 7 11 30.09 1019 10 16 N/A
11:55 am 11:55 Sunny 69 20.8 55 12.5 59 59 ENE 9 15 30.06 1018 10 16 N/A
12:15 pm 12:15 Sunny 69 20.8 54 12 57 57 E 7 11 30.06 1018 10 16 N/A
12:35 pm 12:35 Sunny 70 20.9 54 12.1 57 57 NE 9 15 30.06 1018 10 16 N/A
12:55 pm 12:55 Sunny 73 22.7 55 13 54 54 NE 8 13 30.06 1018 10 16 N/A
1:15 pm 13:15 Sunny 73 22.9 56 13.3 55 55 E 7 11 30.06 1018 10 16 N/A
1:35 pm 13:35 Sunny 74 23.6 56 13.5 53 53 NE 9 15 30.06 1018 10 16 N/A
1:55 pm 13:55 Sunny 74 23.6 56 13.3 53 53 ENE 10 17 30.06 1018 10 16 N/A
2:15 pm 14:15 Sunny 74 23.6 56 13.3 53 53 ENE 10 17 30.03 1017 10 16 N/A
2:35 pm 14:35 Sunny 74 23.6 55 12.9 51 51 NE 10 17 30.03 1017 10 16 N/A
2:55 pm 14:55 Sunny 74 23.6 55 12.6 50 50 ENE 8 13 30.03 1017 10 16 N/A
3:15 pm 15:15 Sunny 76 24.7 56 13.4 49 49 NNE 10 17 30.03 1017 10 16 N/A
3:35 pm 15:35 Sunny 77 25.1 56 13.6 49 49 NE 9 15 30.03 1017 10 16 N/A
3:55 pm 15:55 Sunny 77 25.1 56 13.2 48 48 E 7 11 30.03 1017 10 16 N/A
4:15 pm 16:15 Sunny 77 25.1 56 13.3 48 48 NE 12 19 30.03 1017 10 16 N/A
4:35 pm 16:35 Sunny 77 25.1 55 12.8 46 46 NE 7 11 30.03 1017 10 16 N/A
4:55 pm 16:55 Sunny 77 25.1 56 13.1 47 47 NNE 8 13 30.03 1017 10 16 N/A
5:15 pm 17:15 Sunny 77 25.1 55 13 47 47 ENE 9 15 30.03 1017 10 16 N/A
5:35 pm 17:35 Sunny 77 25.1 56 13.1 47 47 ENE 8 13 30.03 1017 10 16 N/A
5:55 pm 17:55 Sunny 77 25.1 56 13.1 47 47 NE 8 13 30.03 1017 10 16 N/A
6:15 pm 18:15 Sunny 74 23.6 55 12.9 51 51 NE 7 11 30.03 1017 10 16 N/A
6:35 pm 18:35 Sunny 74 23.6 57 13.7 54 54 ENE 5 7 30.03 1017 10 16 N/A
6:55 pm 18:55 Sunny 74 23.6 58 14.3 56 56 ENE 5 7 30.03 1017 10 16 N/A
7:15 pm 19:15 Sunny 72 22.3 58 14.5 61 61 ENE 5 7 30.03 1017 10 16 N/A
7:35 pm 19:35 Clear 69 20.8 58 14.7 68 68 E 6 9 30.06 1018 10 16 N/A
7:55 pm 19:55 Clear 69 20.8 60 15.3 71 71 ENE 3 6 30.06 1018 10 16 N/A
8:15 pm 20:15 Clear 66 19 59 14.8 77 77 N N/A 30.06 1018 10 16 N/A
8:35 pm 20:35 Clear 64 17.5 57 14.1 81 81 N N/A 30.06 1018 10 16 N/A
8:55 pm 20:55 Clear 67 19.5 58 14.3 72 72 NE 5 7 30.06 1018 10 16 N/A
9:15 pm 21:15 Clear 65 18.6 57 13.9 74 74 NNE 6 9 30.06 1018 10 16 N/A
9:35 pm 21:35 Clear 64 17.8 56 13.4 76 76 NE 3 6 30.06 1018 10 16 N/A
9:55 pm 21:55 Clear 62 16.6 56 13.2 80 80 NE 3 6 30.06 1018 10 16 N/A
10:15 pm 22:15 Clear 61 16 56 13.1 83 83 NE 3 6 30.09 1019 10 16 N/A
10:35 pm 22:35 Clear 62 16.9 56 13.4 80 80 ENE 5 7 30.06 1018 10 16 N/A
10:55 pm 22:55 Clear 64 17.6 56 13.6 78 78 ENE 5 7 30.06 1018 10 16 N/A
11:15 pm 23:15 Clear 64 18 56 13.5 75 75 ENE 3 6 30.06 1018 10 16 N/A
11:35 pm 23:35 Clear 64 17.6 56 13.4 77 77 ENE 5 7 30.09 1019 10 16 N/A
11:55 pm 23:55 Clear 64 17.7 56 13.2 75 75 NNE 3 6 30.09 1019 10 16 N/A

Powered by AerisWeather